Tracking 21612 objects as of 20-Oct-2020
HD Live streaming from Space Station
objects crossing your sky now

EKRAN 1

Track EKRAN 1 now!
EKRAN 1 is classified as:


NORAD ID: 9503
Int'l Code: 1976-107A
Perigee: 35,513.4 km
Apogee: 36,059.6 km
Inclination: 8.7 °
Period: 1,435.7 minutes
Semi major axis: 42157 km
RCS: 3.5481 m2 (large)
Launch date: October 26, 1976
Source: Commonwealth of Independent States (former USSR) (CIS)
Launch site: TYURATAM MISSILE AND SPACE COMPLEX (TTMTR)
aabbcc
Your satellite tracking list
Your tracking list is empty




NASA's NSSDC Master Catalog

Two Line Element Set (TLE):
1  9503U 76107A   20294.53975403 +.00000055 +00000-0 +00000-0 0  9991
2  9503 008.7413 298.9595 0064782 126.4521 213.7033 01.00297514177796
Source of the keplerian elements: AFSPC